Regional Weather Roundup
Issued by NWS

Home | Current Version | Previous Version | Graphics & Text | Print | Product List | Glossary On
Versions: 1 2 3 4 5 6 7 8 9 10 11 12 13 14 15 16 17 18 19 20 21 22 23 24 25 26 27
000
ASUS45 KBOI 161910
RWRID

IDAHO REGIONAL WEATHER ROUNDUP
NATIONAL WEATHER SERVICE BOISE ID
100 PM MDT MON OCT 16 2017

NOTE: "FAIR" INDICATES FEW OR NO CLOUDS BELOW 12000 FEET
WITH NO SIGNIFICANT WEATHER AND/OR OBSTRUCTIONS TO VISIBILITY

IDZ012-014-162000-
SOUTHWEST IDAHO


CITY           SKY/WX    TMP DP  RH WIND       PRES   REMARKS
BOISE          SUNNY     54  26  34 VRB3      30.37F
CALDWELL       SUNNY     52  29  41 VRB3      30.39F
MOUNTAIN HOME  SUNNY     57  30  36 SE9       30.37F
$$

IDZ016-017-162000-
SOUTHCENTRAL IDAHO


CITY           SKY/WX    TMP DP  RH WIND       PRES   REMARKS
BURLEY         SUNNY     56  22  26 VRB3      30.37F
JEROME         SUNNY     56  25  30 CALM      30.38F
TWIN FALLS     SUNNY     56  26  31 N6        30.38S
$$

IDZ019>023-162000-
SOUTHEAST IDAHO


CITY           SKY/WX    TMP DP  RH WIND       PRES   REMARKS
IDAHO FALLS    SUNNY     51  26  37 CALM      30.42F
POCATELLO      SUNNY     53  25  33 NE7       30.41F
REXBURG        SUNNY     52  19  27 S6        30.41F
$$

IDZ006-010-011-018-031-032-162000-
CENTRAL IDAHO MOUNTAINS


CITY           SKY/WX    TMP DP  RH WIND       PRES   REMARKS
MCCALL         SUNNY     49  29  46 CALM      30.36F
HAILEY         SUNNY     55  27  33 SE10      30.40F
STANLEY          N/A     48  22  35 CALM      30.41F
SALMON         SUNNY     49  27  42 CALM      30.37F
CHALLIS        SUNNY     51  25  36 CALM      30.37F
$$

IDZ002-004-006-007-026-162000-
NORTHERN IDAHO


CITY           SKY/WX    TMP DP  RH WIND       PRES   REMARKS
LEWISTON       SUNNY     57  38  48 N7        30.25F
LOWELL           N/A     51  38  60 CALM      30.32F
COEUR D`ALENE  SUNNY     57  33  40 S12       30.23F
MULLAN PASS    SUNNY     46  20  35 SW12G20   30.26F
$$




USA.gov is the U.S. government's official web portal to all federal, state and local government web resources and services.